Year,Month,Day,Hour,Minute,Value (Times are PST for temperature in C)
2017,09,04,00,00,19.60
2017,09,04,00,01,19.60
2017,09,04,00,02,19.60
2017,09,04,00,03,19.60
2017,09,04,00,04,19.60
2017,09,04,00,05,19.50
2017,09,04,00,06,19.50
2017,09,04,00,07,19.50
2017,09,04,00,08,19.60
2017,09,04,00,09,19.60
2017,09,04,00,10,19.60
2017,09,04,00,11,19.60
2017,09,04,00,12,19.60
2017,09,04,00,13,19.60
2017,09,04,00,14,19.60
2017,09,04,00,15,19.60
2017,09,04,00,16,19.60
2017,09,04,00,17,19.70
2017,09,04,00,18,19.70
2017,09,04,00,19,19.70
2017,09,04,00,20,19.70
2017,09,04,00,21,19.70
2017,09,04,00,22,19.70
2017,09,04,00,23,19.70
2017,09,04,00,24,19.70
2017,09,04,00,25,19.70
2017,09,04,00,26,19.70
2017,09,04,00,27,19.70
2017,09,04,00,28,19.70
2017,09,04,00,29,19.70
2017,09,04,00,30,19.70
2017,09,04,00,31,19.70
2017,09,04,00,32,19.70
2017,09,04,00,33,19.70
2017,09,04,00,34,19.70
2017,09,04,00,35,19.70
2017,09,04,00,36,19.70
2017,09,04,00,37,19.70
2017,09,04,00,38,19.70
2017,09,04,00,39,19.70
2017,09,04,00,40,19.70
2017,09,04,00,41,19.70
2017,09,04,00,42,19.70
2017,09,04,00,43,19.70
2017,09,04,00,44,19.80
2017,09,04,00,45,19.80
2017,09,04,00,46,19.90
2017,09,04,00,47,19.90
2017,09,04,00,48,20.00
2017,09,04,00,49,20.00
2017,09,04,00,50,20.10
2017,09,04,00,51,20.10
2017,09,04,00,52,20.10
2017,09,04,00,53,20.10
2017,09,04,00,54,20.20
2017,09,04,00,55,20.20
2017,09,04,00,56,20.20
2017,09,04,00,57,20.20
2017,09,04,00,58,20.20
2017,09,04,00,59,20.20
2017,09,04,01,00,20.20
2017,09,04,01,01,20.20
2017,09,04,01,02,20.20
2017,09,04,01,03,20.30
2017,09,04,01,04,20.30
2017,09,04,01,05,20.30
2017,09,04,01,06,20.30
2017,09,04,01,07,20.40
2017,09,04,01,08,20.40
2017,09,04,01,09,20.40
2017,09,04,01,10,20.40
2017,09,04,01,11,20.50
2017,09,04,01,12,20.50
2017,09,04,01,13,20.50
2017,09,04,01,14,20.50
2017,09,04,01,15,20.60
2017,09,04,01,16,20.60
2017,09,04,01,17,20.60
2017,09,04,01,18,20.60
2017,09,04,01,19,20.50
2017,09,04,01,20,20.50
2017,09,04,01,21,20.50
2017,09,04,01,22,20.50
2017,09,04,01,23,20.50
2017,09,04,01,24,20.60
2017,09,04,01,25,20.60
2017,09,04,01,26,20.60
2017,09,04,01,27,20.60
2017,09,04,01,28,20.60
2017,09,04,01,29,20.60
2017,09,04,01,30,20.60
2017,09,04,01,31,20.60
2017,09,04,01,32,20.60
2017,09,04,01,33,20.60
2017,09,04,01,34,20.50
2017,09,04,01,35,20.40
2017,09,04,01,36,20.40
2017,09,04,01,37,20.30
2017,09,04,01,38,20.30
2017,09,04,01,39,20.20
2017,09,04,01,40,20.20
2017,09,04,01,41,20.10
2017,09,04,01,42,20.10
2017,09,04,01,43,20.00
2017,09,04,01,44,19.90
2017,09,04,01,45,19.90
2017,09,04,01,46,19.80
2017,09,04,01,47,19.70
2017,09,04,01,48,19.60
2017,09,04,01,49,19.50
2017,09,04,01,50,19.40
2017,09,04,01,51,19.40
2017,09,04,01,52,19.30
2017,09,04,01,53,19.30
2017,09,04,01,54,19.30
2017,09,04,01,55,19.30
2017,09,04,01,56,19.30
2017,09,04,01,57,19.30
2017,09,04,01,58,19.30
2017,09,04,01,59,19.30
2017,09,04,02,00,19.30
2017,09,04,02,01,19.30
2017,09,04,02,02,19.30
2017,09,04,02,03,19.40
2017,09,04,02,04,19.40
2017,09,04,02,05,19.50
2017,09,04,02,06,19.50
2017,09,04,02,07,19.60
2017,09,04,02,08,19.60
2017,09,04,02,09,19.60
2017,09,04,02,10,19.60
2017,09,04,02,11,19.60
2017,09,04,02,12,19.60
2017,09,04,02,13,19.50
2017,09,04,02,14,19.50
2017,09,04,02,15,19.40
2017,09,04,02,16,19.30
2017,09,04,02,17,19.30
2017,09,04,02,18,19.20
2017,09,04,02,19,19.20
2017,09,04,02,20,19.10
2017,09,04,02,21,19.10
2017,09,04,02,22,19.00
2017,09,04,02,23,19.00
2017,09,04,02,24,19.00
2017,09,04,02,25,19.00
2017,09,04,02,26,19.10
2017,09,04,02,27,19.00
2017,09,04,02,28,19.00
2017,09,04,02,29,19.00
2017,09,04,02,30,18.90
2017,09,04,02,31,18.90
2017,09,04,02,32,18.80
2017,09,04,02,33,18.70
2017,09,04,02,34,18.70
2017,09,04,02,35,18.60
2017,09,04,02,36,18.60
2017,09,04,02,37,18.60
2017,09,04,02,38,18.50
2017,09,04,02,39,18.50
2017,09,04,02,40,18.50
2017,09,04,02,41,18.50
2017,09,04,02,42,18.60
2017,09,04,02,43,18.60
2017,09,04,02,44,18.70
2017,09,04,02,45,18.80
2017,09,04,02,46,18.80
2017,09,04,02,47,18.90
2017,09,04,02,48,19.00
2017,09,04,02,49,19.10
2017,09,04,02,50,19.20
2017,09,04,02,51,19.30
2017,09,04,02,52,19.30
2017,09,04,02,53,19.30
2017,09,04,02,54,19.30
2017,09,04,02,55,19.30
2017,09,04,02,56,19.30
2017,09,04,02,57,19.30
2017,09,04,02,58,19.30
2017,09,04,02,59,19.20
2017,09,04,03,00,19.20
2017,09,04,03,01,19.20
2017,09,04,03,02,19.20
2017,09,04,03,03,19.20
2017,09,04,03,04,19.20
2017,09,04,03,05,19.30
2017,09,04,03,06,19.30
2017,09,04,03,07,19.40
2017,09,04,03,08,19.40
2017,09,04,03,09,19.50
2017,09,04,03,10,19.50
2017,09,04,03,11,19.60
2017,09,04,03,12,19.60
2017,09,04,03,13,19.70
2017,09,04,03,14,19.70
2017,09,04,03,15,19.70
2017,09,04,03,16,19.80
2017,09,04,03,17,19.80
2017,09,04,03,18,19.80
2017,09,04,03,19,19.80
2017,09,04,03,20,19.80
2017,09,04,03,21,19.80
2017,09,04,03,22,19.80
2017,09,04,03,23,19.70
2017,09,04,03,24,19.70
2017,09,04,03,25,19.70
2017,09,04,03,26,19.60
2017,09,04,03,27,19.60
2017,09,04,03,28,19.60
2017,09,04,03,29,19.60
2017,09,04,03,30,19.60
2017,09,04,03,31,19.60
2017,09,04,03,32,19.60
2017,09,04,03,33,19.60
2017,09,04,03,34,19.60
2017,09,04,03,35,19.50
2017,09,04,03,36,19.50
2017,09,04,03,37,19.50
2017,09,04,03,38,19.40
2017,09,04,03,39,19.40
2017,09,04,03,40,19.30
2017,09,04,03,41,19.30
2017,09,04,03,42,19.30
2017,09,04,03,43,19.20
2017,09,04,03,44,19.20
2017,09,04,03,45,19.20
2017,09,04,03,46,19.10
2017,09,04,03,47,19.10
2017,09,04,03,48,19.10
2017,09,04,03,49,19.10
2017,09,04,03,50,19.10
2017,09,04,03,51,19.10
2017,09,04,03,52,19.10
2017,09,04,03,53,19.10
2017,09,04,03,54,19.10
2017,09,04,03,55,19.10
2017,09,04,03,56,19.00
2017,09,04,03,57,19.00
2017,09,04,03,58,18.90
2017,09,04,03,59,18.80
2017,09,04,04,00,18.70
2017,09,04,04,01,18.70
2017,09,04,04,02,18.70
2017,09,04,04,03,18.70
2017,09,04,04,04,18.60
2017,09,04,04,05,18.60
2017,09,04,04,06,18.60
2017,09,04,04,07,18.60
2017,09,04,04,08,18.60
2017,09,04,04,09,18.60
2017,09,04,04,10,18.70
2017,09,04,04,11,18.70
2017,09,04,04,12,18.70
2017,09,04,04,13,18.70
2017,09,04,04,14,18.70
2017,09,04,04,15,18.70
2017,09,04,04,16,18.70
2017,09,04,04,17,18.70
2017,09,04,04,18,18.70
2017,09,04,04,19,18.70
2017,09,04,04,20,18.60
2017,09,04,04,21,18.60
2017,09,04,04,22,18.60
2017,09,04,04,23,18.60
2017,09,04,04,24,18.60
2017,09,04,04,25,18.50
2017,09,04,04,26,18.40
2017,09,04,04,27,18.30
2017,09,04,04,28,18.20
2017,09,04,04,29,18.20
2017,09,04,04,30,18.10
2017,09,04,04,31,18.00
2017,09,04,04,32,18.00
2017,09,04,04,33,17.90
2017,09,04,04,34,17.80
2017,09,04,04,35,17.80
2017,09,04,04,36,17.80
2017,09,04,04,37,17.70
2017,09,04,04,38,17.60
2017,09,04,04,39,17.60
2017,09,04,04,40,17.60
2017,09,04,04,41,17.60
2017,09,04,04,42,17.50
2017,09,04,04,43,17.50
2017,09,04,04,44,17.40
2017,09,04,04,45,17.40
2017,09,04,04,46,17.40
2017,09,04,04,47,17.40
2017,09,04,04,48,17.40
2017,09,04,04,49,17.40
2017,09,04,04,50,17.50
2017,09,04,04,51,17.50
2017,09,04,04,52,17.60
2017,09,04,04,53,17.70
2017,09,04,04,54,17.80
2017,09,04,04,55,17.90
2017,09,04,04,56,18.00
2017,09,04,04,57,18.10
2017,09,04,04,58,18.10
2017,09,04,04,59,18.20
2017,09,04,05,00,18.20
2017,09,04,05,01,18.20
2017,09,04,05,02,18.30
2017,09,04,05,03,18.30
2017,09,04,05,04,18.40
2017,09,04,05,05,18.40
2017,09,04,05,06,18.50
2017,09,04,05,07,18.60
2017,09,04,05,08,18.60
2017,09,04,05,09,18.70
2017,09,04,05,10,18.80
2017,09,04,05,11,18.80
2017,09,04,05,12,18.80
2017,09,04,05,13,18.90
2017,09,04,05,14,18.90
2017,09,04,05,15,18.90
2017,09,04,05,16,18.90
2017,09,04,05,17,19.00
2017,09,04,05,18,19.00
2017,09,04,05,19,19.00
2017,09,04,05,20,19.00
2017,09,04,05,21,19.10
2017,09,04,05,22,19.10
2017,09,04,05,23,19.10
2017,09,04,05,24,19.10
2017,09,04,05,25,19.10
2017,09,04,05,26,19.10
2017,09,04,05,27,19.10
2017,09,04,05,28,19.00
2017,09,04,05,29,19.00
2017,09,04,05,30,18.90
2017,09,04,05,31,18.90
2017,09,04,05,32,18.90
2017,09,04,05,33,18.90
2017,09,04,05,34,18.90
2017,09,04,05,35,18.80
2017,09,04,05,36,18.80
2017,09,04,05,37,18.80
2017,09,04,05,38,18.80
2017,09,04,05,39,18.80
2017,09,04,05,40,18.70
2017,09,04,05,41,18.70
2017,09,04,05,42,18.60
2017,09,04,05,43,18.60
2017,09,04,05,44,18.60
2017,09,04,05,45,18.50
2017,09,04,05,46,18.50
2017,09,04,05,47,18.50
2017,09,04,05,48,18.40
2017,09,04,05,49,18.40
2017,09,04,05,50,18.30
2017,09,04,05,51,18.20
2017,09,04,05,52,18.10
2017,09,04,05,53,18.00
2017,09,04,05,54,18.00
2017,09,04,05,55,17.90
2017,09,04,05,56,17.80
2017,09,04,05,57,17.70
2017,09,04,05,58,17.70
2017,09,04,05,59,17.60
2017,09,04,06,00,17.60
2017,09,04,06,01,17.50
2017,09,04,06,02,17.40
2017,09,04,06,03,17.40
2017,09,04,06,04,17.30
2017,09,04,06,05,17.30
2017,09,04,06,06,17.20
2017,09,04,06,07,17.20
2017,09,04,06,08,17.20
2017,09,04,06,09,17.10
2017,09,04,06,10,17.10
2017,09,04,06,11,17.10
2017,09,04,06,12,17.00
2017,09,04,06,13,17.00
2017,09,04,06,14,16.90
2017,09,04,06,15,16.90
2017,09,04,06,16,16.90
2017,09,04,06,17,16.80
2017,09,04,06,18,16.80
2017,09,04,06,19,16.80
2017,09,04,06,20,16.80
2017,09,04,06,21,16.70
2017,09,04,06,22,16.70
2017,09,04,06,23,16.70
2017,09,04,06,24,16.60
2017,09,04,06,25,16.60
2017,09,04,06,26,16.60
2017,09,04,06,27,16.50
2017,09,04,06,28,16.50
2017,09,04,06,29,16.40
2017,09,04,06,30,16.40
2017,09,04,06,31,16.30
2017,09,04,06,32,16.30
2017,09,04,06,33,16.20
2017,09,04,06,34,16.20
2017,09,04,06,35,16.20
2017,09,04,06,36,16.10
2017,09,04,06,37,16.10
2017,09,04,06,38,16.10
2017,09,04,06,39,16.10
2017,09,04,06,40,16.10
2017,09,04,06,41,16.10
2017,09,04,06,42,16.10
2017,09,04,06,43,16.10
2017,09,04,06,44,16.10
2017,09,04,06,45,16.00
2017,09,04,06,46,16.00
2017,09,04,06,47,16.00
2017,09,04,06,48,16.00
2017,09,04,06,49,15.90
2017,09,04,06,50,15.90
2017,09,04,06,51,15.90
2017,09,04,06,52,15.90
2017,09,04,06,53,15.80
2017,09,04,06,54,15.80
2017,09,04,06,55,15.80
2017,09,04,06,56,15.80
2017,09,04,06,57,15.80
2017,09,04,06,58,15.80
2017,09,04,06,59,15.80
2017,09,04,07,00,15.80
2017,09,04,07,01,15.80
2017,09,04,07,02,15.80
2017,09,04,07,03,15.80
2017,09,04,07,04,15.80
2017,09,04,07,05,15.80
2017,09,04,07,06,15.80
2017,09,04,07,07,15.80
2017,09,04,07,08,15.70
2017,09,04,07,09,15.70
2017,09,04,07,10,15.70
2017,09,04,07,11,15.70
2017,09,04,07,12,15.70
2017,09,04,07,13,15.70
2017,09,04,07,14,15.70
2017,09,04,07,15,15.80
2017,09,04,07,16,15.80
2017,09,04,07,17,15.80
2017,09,04,07,18,15.80
2017,09,04,07,19,15.80
2017,09,04,07,20,15.80
2017,09,04,07,21,15.80
2017,09,04,07,22,15.90
2017,09,04,07,23,15.90
2017,09,04,07,24,15.90
2017,09,04,07,25,16.00
2017,09,04,07,26,16.00
2017,09,04,07,27,16.10
2017,09,04,07,28,16.10
2017,09,04,07,29,16.20
2017,09,04,07,30,16.20
2017,09,04,07,31,16.30
2017,09,04,07,32,16.30
2017,09,04,07,33,16.40
2017,09,04,07,34,16.40
2017,09,04,07,35,16.50
2017,09,04,07,36,16.60
2017,09,04,07,37,16.60
2017,09,04,07,38,16.70
2017,09,04,07,39,16.70
2017,09,04,07,40,16.80
2017,09,04,07,41,16.80
2017,09,04,07,42,16.90
2017,09,04,07,43,17.00
2017,09,04,07,44,17.10
2017,09,04,07,45,17.10
2017,09,04,07,46,17.20
2017,09,04,07,47,17.20
2017,09,04,07,48,17.30
2017,09,04,07,49,17.30
2017,09,04,07,50,17.40
2017,09,04,07,51,17.40
2017,09,04,07,52,17.50
2017,09,04,07,53,17.60
2017,09,04,07,54,17.70
2017,09,04,07,55,17.80
2017,09,04,07,56,17.80
2017,09,04,07,57,17.90
2017,09,04,07,58,18.00
2017,09,04,07,59,18.00
2017,09,04,08,00,18.10
2017,09,04,08,01,18.20
2017,09,04,08,02,18.20
2017,09,04,08,03,18.30
2017,09,04,08,04,18.40
2017,09,04,08,05,18.40
2017,09,04,08,06,18.50
2017,09,04,08,07,18.50
2017,09,04,08,08,18.60
2017,09,04,08,09,18.70
2017,09,04,08,10,18.70
2017,09,04,08,11,18.80
2017,09,04,08,12,18.80
2017,09,04,08,13,18.90
2017,09,04,08,14,19.00
2017,09,04,08,15,19.10
2017,09,04,08,16,19.10
2017,09,04,08,17,19.20
2017,09,04,08,18,19.20
2017,09,04,08,19,19.30
2017,09,04,08,20,19.40
2017,09,04,08,21,19.40
2017,09,04,08,22,19.50
2017,09,04,08,23,19.50
2017,09,04,08,24,19.60
2017,09,04,08,25,19.60
2017,09,04,08,26,19.60
2017,09,04,08,27,19.70
2017,09,04,08,28,19.70
2017,09,04,08,29,19.70
2017,09,04,08,30,19.80
2017,09,04,08,31,19.80
2017,09,04,08,32,19.80
2017,09,04,08,33,19.90
2017,09,04,08,34,19.90
2017,09,04,08,35,19.90
2017,09,04,08,36,20.00
2017,09,04,08,37,20.00
2017,09,04,08,38,20.00
2017,09,04,08,39,20.10
2017,09,04,08,40,20.10
2017,09,04,08,41,20.20
2017,09,04,08,42,20.20
2017,09,04,08,43,20.30
2017,09,04,08,44,20.30
2017,09,04,08,45,20.40
2017,09,04,08,46,20.40
2017,09,04,08,47,20.50
2017,09,04,08,48,20.50
2017,09,04,08,49,20.60
2017,09,04,08,50,20.60
2017,09,04,08,51,20.70
2017,09,04,08,52,20.70
2017,09,04,08,53,20.80
2017,09,04,08,54,20.80
2017,09,04,08,55,20.80
2017,09,04,08,56,20.80
2017,09,04,08,57,20.90
2017,09,04,08,58,20.90
2017,09,04,08,59,20.90
2017,09,04,09,00,20.90
2017,09,04,09,01,21.00
2017,09,04,09,02,21.00
2017,09,04,09,03,21.10
2017,09,04,09,04,21.10
2017,09,04,09,05,21.20
2017,09,04,09,06,21.20
2017,09,04,09,07,21.20
2017,09,04,09,08,21.30
2017,09,04,09,09,21.30
2017,09,04,09,10,21.40
2017,09,04,09,11,21.40
2017,09,04,09,12,21.50
2017,09,04,09,13,21.50
2017,09,04,09,14,21.60
2017,09,04,09,15,21.60
2017,09,04,09,16,21.70
2017,09,04,09,17,21.70
2017,09,04,09,18,21.80
2017,09,04,09,19,21.80
2017,09,04,09,20,21.90
2017,09,04,09,21,21.90
2017,09,04,09,22,21.90
2017,09,04,09,23,22.00
2017,09,04,09,24,22.10
2017,09,04,09,25,22.10
2017,09,04,09,26,22.10
2017,09,04,09,27,22.20
2017,09,04,09,28,22.20
2017,09,04,09,29,22.20
2017,09,04,09,30,22.30
2017,09,04,09,31,22.30
2017,09,04,09,32,22.30
2017,09,04,09,33,22.30
2017,09,04,09,34,22.30
2017,09,04,09,35,22.30
2017,09,04,09,36,22.40
2017,09,04,09,37,22.40
2017,09,04,09,38,22.40
2017,09,04,09,39,22.40
2017,09,04,09,40,22.40
2017,09,04,09,41,22.40
2017,09,04,09,42,22.40
2017,09,04,09,43,22.40
2017,09,04,09,44,22.30
2017,09,04,09,45,22.30
2017,09,04,09,46,22.30
2017,09,04,09,47,22.30
2017,09,04,09,48,22.30
2017,09,04,09,49,22.30
2017,09,04,09,50,22.30
2017,09,04,09,51,22.30
2017,09,04,09,52,22.40
2017,09,04,09,53,22.40
2017,09,04,09,54,22.40
2017,09,04,09,55,22.50
2017,09,04,09,56,22.50
2017,09,04,09,57,22.50
2017,09,04,09,58,22.60
2017,09,04,09,59,22.60
2017,09,04,10,00,22.60
2017,09,04,10,01,22.60
2017,09,04,10,02,22.60
2017,09,04,10,03,22.60
2017,09,04,10,04,22.70
2017,09,04,10,05,22.60
2017,09,04,10,06,22.60
2017,09,04,10,07,22.60
2017,09,04,10,08,22.60
2017,09,04,10,09,22.60
2017,09,04,10,10,22.60
2017,09,04,10,11,22.60
2017,09,04,10,12,22.60
2017,09,04,10,13,22.60
2017,09,04,10,14,22.70
2017,09,04,10,15,22.70
2017,09,04,10,16,22.70
2017,09,04,10,17,22.80
2017,09,04,10,18,22.80
2017,09,04,10,19,22.90
2017,09,04,10,20,22.90
2017,09,04,10,21,23.00
2017,09,04,10,22,23.10
2017,09,04,10,23,23.20
2017,09,04,10,24,23.30
2017,09,04,10,25,23.40
2017,09,04,10,26,23.40
2017,09,04,10,27,23.50
2017,09,04,10,28,23.60
2017,09,04,10,29,23.70
2017,09,04,10,30,23.80
2017,09,04,10,31,23.90
2017,09,04,10,32,24.00
2017,09,04,10,33,24.00
2017,09,04,10,34,24.10
2017,09,04,10,35,24.20
2017,09,04,10,36,24.30
2017,09,04,10,37,24.30
2017,09,04,10,38,24.40
2017,09,04,10,39,24.40
2017,09,04,10,40,24.50
2017,09,04,10,41,24.60
2017,09,04,10,42,24.60
2017,09,04,10,43,24.70
2017,09,04,10,44,24.80
2017,09,04,10,45,24.90
2017,09,04,10,46,24.90
2017,09,04,10,47,25.00
2017,09,04,10,48,25.00
2017,09,04,10,49,25.00
2017,09,04,10,50,25.10
2017,09,04,10,51,25.10
2017,09,04,10,52,25.20
2017,09,04,10,53,25.20
2017,09,04,10,54,25.30
2017,09,04,10,55,25.40
2017,09,04,10,56,25.50
2017,09,04,10,57,25.50
2017,09,04,10,58,25.60
2017,09,04,10,59,25.60
2017,09,04,11,00,25.60
2017,09,04,11,01,25.60
2017,09,04,11,02,25.60
2017,09,04,11,03,25.70
2017,09,04,11,04,25.70
2017,09,04,11,05,25.70
2017,09,04,11,06,25.80
2017,09,04,11,07,25.80
2017,09,04,11,08,25.80
2017,09,04,11,09,25.80
2017,09,04,11,10,25.80
2017,09,04,11,11,25.90
2017,09,04,11,12,25.90
2017,09,04,11,13,25.90
2017,09,04,11,14,25.90
2017,09,04,11,15,25.90
2017,09,04,11,16,25.90
2017,09,04,11,17,26.00
2017,09,04,11,18,26.00
2017,09,04,11,19,26.00
2017,09,04,11,20,26.10
2017,09,04,11,21,26.10
2017,09,04,11,22,26.20
2017,09,04,11,23,26.20
2017,09,04,11,24,26.30
2017,09,04,11,25,26.30
2017,09,04,11,26,26.40
2017,09,04,11,27,26.50
2017,09,04,11,28,26.60
2017,09,04,11,29,26.70
2017,09,04,11,30,26.80
2017,09,04,11,31,27.00
2017,09,04,11,32,27.00
2017,09,04,11,33,27.10
2017,09,04,11,34,27.20
2017,09,04,11,35,27.30
2017,09,04,11,36,27.40
2017,09,04,11,37,27.50
2017,09,04,11,38,27.60
2017,09,04,11,39,27.60
2017,09,04,11,40,27.70
2017,09,04,11,41,27.70
2017,09,04,11,42,27.80
2017,09,04,11,43,27.90
2017,09,04,11,44,27.90
2017,09,04,11,45,28.00
2017,09,04,11,46,28.00
2017,09,04,11,47,27.90
2017,09,04,11,48,27.90
2017,09,04,11,49,27.90
2017,09,04,11,50,27.90
2017,09,04,11,51,27.90
2017,09,04,11,52,27.90
2017,09,04,11,53,28.00
2017,09,04,11,54,28.00
2017,09,04,11,55,28.00
2017,09,04,11,56,28.10
2017,09,04,11,57,28.10
2017,09,04,11,58,28.20
2017,09,04,11,59,28.30
2017,09,04,12,00,28.30
2017,09,04,12,01,28.30
2017,09,04,12,02,28.20
2017,09,04,12,03,28.20
2017,09,04,12,04,28.10
2017,09,04,12,05,28.10
2017,09,04,12,06,28.10
2017,09,04,12,07,28.10
2017,09,04,12,08,28.10
2017,09,04,12,09,28.10
2017,09,04,12,10,28.20
2017,09,04,12,11,28.20
2017,09,04,12,12,28.20
2017,09,04,12,13,28.20
2017,09,04,12,14,28.30
2017,09,04,12,15,28.30
2017,09,04,12,16,28.30
2017,09,04,12,17,28.30
2017,09,04,12,18,28.30
2017,09,04,12,19,28.20
2017,09,04,12,20,28.20
2017,09,04,12,21,28.20
2017,09,04,12,22,28.20
2017,09,04,12,23,28.20
2017,09,04,12,24,28.20
2017,09,04,12,25,28.20
2017,09,04,12,26,28.20
2017,09,04,12,27,28.30
2017,09,04,12,28,28.20
2017,09,04,12,29,28.30
2017,09,04,12,30,28.30
2017,09,04,12,31,28.30
2017,09,04,12,32,28.30
2017,09,04,12,33,28.30
2017,09,04,12,34,28.40
2017,09,04,12,35,28.40
2017,09,04,12,36,28.50
2017,09,04,12,37,28.50
2017,09,04,12,38,28.60
2017,09,04,12,39,28.60
2017,09,04,12,40,28.70
2017,09,04,12,41,28.70
2017,09,04,12,42,28.70
2017,09,04,12,43,28.80
2017,09,04,12,44,28.80
2017,09,04,12,45,28.90
2017,09,04,12,46,28.90
2017,09,04,12,47,28.90
2017,09,04,12,48,28.90
2017,09,04,12,49,28.90
2017,09,04,12,50,28.90
2017,09,04,12,51,28.90
2017,09,04,12,52,29.00
2017,09,04,12,53,29.00
2017,09,04,12,54,29.10
2017,09,04,12,55,29.10
2017,09,04,12,56,29.10
2017,09,04,12,57,29.10
2017,09,04,12,58,29.10
2017,09,04,12,59,29.10
2017,09,04,13,00,29.20
2017,09,04,13,01,29.30
2017,09,04,13,02,29.30
2017,09,04,13,03,29.30
2017,09,04,13,04,29.30
2017,09,04,13,05,29.20
2017,09,04,13,06,29.20
2017,09,04,13,07,29.20
2017,09,04,13,08,29.20
2017,09,04,13,09,29.30
2017,09,04,13,10,29.30
2017,09,04,13,11,29.40
2017,09,04,13,12,29.40
2017,09,04,13,13,29.50
2017,09,04,13,14,29.50
2017,09,04,13,15,29.50
2017,09,04,13,16,29.60
2017,09,04,13,17,29.60
2017,09,04,13,18,29.60
2017,09,04,13,19,29.60
2017,09,04,13,20,29.60
2017,09,04,13,21,29.60
2017,09,04,13,22,29.50
2017,09,04,13,23,29.40
2017,09,04,13,24,29.40
2017,09,04,13,25,29.30
2017,09,04,13,26,29.30
2017,09,04,13,27,29.30
2017,09,04,13,28,29.20
2017,09,04,13,29,29.30
2017,09,04,13,30,29.30
2017,09,04,13,31,29.30
2017,09,04,13,32,29.30
2017,09,04,13,33,29.30
2017,09,04,13,34,29.40
2017,09,04,13,35,29.40
2017,09,04,13,36,29.40
2017,09,04,13,37,29.50
2017,09,04,13,38,29.60
2017,09,04,13,39,29.60
2017,09,04,13,40,29.70
2017,09,04,13,41,29.60
2017,09,04,13,42,29.60
2017,09,04,13,43,29.60
2017,09,04,13,44,29.60
2017,09,04,13,45,29.60
2017,09,04,13,46,29.70
2017,09,04,13,47,29.70
2017,09,04,13,48,29.70
2017,09,04,13,49,29.70
2017,09,04,13,50,29.80
2017,09,04,13,51,29.80
2017,09,04,13,52,29.80
2017,09,04,13,53,29.80
2017,09,04,13,54,29.70
2017,09,04,13,55,29.70
2017,09,04,13,56,29.70
2017,09,04,13,57,29.70
2017,09,04,13,58,29.70
2017,09,04,13,59,29.70
2017,09,04,14,00,29.80
2017,09,04,14,01,29.80
2017,09,04,14,02,29.80
2017,09,04,14,03,29.80
2017,09,04,14,04,29.90
2017,09,04,14,05,30.00
2017,09,04,14,06,30.00
2017,09,04,14,07,30.10
2017,09,04,14,08,30.20
2017,09,04,14,09,30.30
2017,09,04,14,10,30.30
2017,09,04,14,11,30.40
2017,09,04,14,12,30.50
2017,09,04,14,13,30.60
2017,09,04,14,14,30.60
2017,09,04,14,15,30.70
2017,09,04,14,16,30.70
2017,09,04,14,17,30.70
2017,09,04,14,18,30.80
2017,09,04,14,19,30.80
2017,09,04,14,20,30.80
2017,09,04,14,21,30.80
2017,09,04,14,22,30.80
2017,09,04,14,23,30.80
2017,09,04,14,24,30.70
2017,09,04,14,25,30.70
2017,09,04,14,26,30.60
2017,09,04,14,27,30.60
2017,09,04,14,28,30.60
2017,09,04,14,29,30.60
2017,09,04,14,30,30.70
2017,09,04,14,31,30.70
2017,09,04,14,32,30.70
2017,09,04,14,33,30.70
2017,09,04,14,34,30.70
2017,09,04,14,35,30.70
2017,09,04,14,36,30.70
2017,09,04,14,37,30.70
2017,09,04,14,38,30.70
2017,09,04,14,39,30.70
2017,09,04,14,40,30.80
2017,09,04,14,41,30.80
2017,09,04,14,42,30.90
2017,09,04,14,43,30.90
2017,09,04,14,44,30.90
2017,09,04,14,45,30.90
2017,09,04,14,46,30.90
2017,09,04,14,47,31.00
2017,09,04,14,48,31.00
2017,09,04,14,49,30.90
2017,09,04,14,50,30.90
2017,09,04,14,51,30.90
2017,09,04,14,52,30.90
2017,09,04,14,53,30.90
2017,09,04,14,54,30.90
2017,09,04,14,55,30.90
2017,09,04,14,56,30.90
2017,09,04,14,57,30.90
2017,09,04,14,58,30.90
2017,09,04,14,59,31.00
2017,09,04,15,00,31.00
2017,09,04,15,01,31.10
2017,09,04,15,02,31.10
2017,09,04,15,03,31.10
2017,09,04,15,04,31.20
2017,09,04,15,05,31.30
2017,09,04,15,06,31.30
2017,09,04,15,07,31.40
2017,09,04,15,08,31.50
2017,09,04,15,09,31.60
2017,09,04,15,10,31.60
2017,09,04,15,11,31.60
2017,09,04,15,12,31.70
2017,09,04,15,13,31.70
2017,09,04,15,14,31.70
2017,09,04,15,15,31.70
2017,09,04,15,16,31.70
2017,09,04,15,17,31.70
2017,09,04,15,18,31.70
2017,09,04,15,19,31.60
2017,09,04,15,20,31.60
2017,09,04,15,21,31.60
2017,09,04,15,22,31.60
2017,09,04,15,23,31.70
2017,09,04,15,24,31.70
2017,09,04,15,25,31.70
2017,09,04,15,26,31.80
2017,09,04,15,27,31.80
2017,09,04,15,28,31.80
2017,09,04,15,29,31.80
2017,09,04,15,30,31.90
2017,09,04,15,31,31.90
2017,09,04,15,32,31.90
2017,09,04,15,33,32.00
2017,09,04,15,34,32.10
2017,09,04,15,35,32.10
2017,09,04,15,36,32.10
2017,09,04,15,37,32.10
2017,09,04,15,38,32.10
2017,09,04,15,39,32.20
2017,09,04,15,40,32.20
2017,09,04,15,41,32.30
2017,09,04,15,42,32.30
2017,09,04,15,43,32.20
2017,09,04,15,44,32.30
2017,09,04,15,45,32.30
2017,09,04,15,46,32.30
2017,09,04,15,47,32.30
2017,09,04,15,48,32.30
2017,09,04,15,49,32.30
2017,09,04,15,50,32.30
2017,09,04,15,51,32.20
2017,09,04,15,52,32.20
2017,09,04,15,53,32.30
2017,09,04,15,54,32.30
2017,09,04,15,55,32.30
2017,09,04,15,56,32.30
2017,09,04,15,57,32.40
2017,09,04,15,58,32.40
2017,09,04,15,59,32.50
2017,09,04,16,00,32.50
2017,09,04,16,01,32.60
2017,09,04,16,02,32.60
2017,09,04,16,03,32.70
2017,09,04,16,04,32.70
2017,09,04,16,05,32.80
2017,09,04,16,06,32.80
2017,09,04,16,07,32.90
2017,09,04,16,08,32.90
2017,09,04,16,09,32.90
2017,09,04,16,10,32.90
2017,09,04,16,11,32.90
2017,09,04,16,12,32.90
2017,09,04,16,13,32.90
2017,09,04,16,14,32.90
2017,09,04,16,15,32.90
2017,09,04,16,16,32.90
2017,09,04,16,17,32.90
2017,09,04,16,18,32.90
2017,09,04,16,19,32.90
2017,09,04,16,20,32.90
2017,09,04,16,21,32.80
2017,09,04,16,22,32.70
2017,09,04,16,23,32.60
2017,09,04,16,24,32.60
2017,09,04,16,25,32.60
2017,09,04,16,26,32.60
2017,09,04,16,27,32.50
2017,09,04,16,28,32.50
2017,09,04,16,29,32.40
2017,09,04,16,30,32.40
2017,09,04,16,31,32.40
2017,09,04,16,32,32.40
2017,09,04,16,33,32.40
2017,09,04,16,34,32.30
2017,09,04,16,35,32.30
2017,09,04,16,36,32.30
2017,09,04,16,37,32.30
2017,09,04,16,38,32.30
2017,09,04,16,39,32.20
2017,09,04,16,40,32.20
2017,09,04,16,41,32.20
2017,09,04,16,42,32.20
2017,09,04,16,43,32.20
2017,09,04,16,44,32.20
2017,09,04,16,45,32.20
2017,09,04,16,46,32.20
2017,09,04,16,47,32.30
2017,09,04,16,48,32.30
2017,09,04,16,49,32.40
2017,09,04,16,50,32.40
2017,09,04,16,51,32.50
2017,09,04,16,52,32.60
2017,09,04,16,53,32.60
2017,09,04,16,54,32.60
2017,09,04,16,55,32.70
2017,09,04,16,56,32.70
2017,09,04,16,57,32.60
2017,09,04,16,58,32.60
2017,09,04,16,59,32.70
2017,09,04,17,00,32.70
2017,09,04,17,01,32.70
2017,09,04,17,02,32.70
2017,09,04,17,03,32.70
2017,09,04,17,04,32.70
2017,09,04,17,05,32.60
2017,09,04,17,06,32.60
2017,09,04,17,07,32.60
2017,09,04,17,08,32.60
2017,09,04,17,09,32.60
2017,09,04,17,10,32.60
2017,09,04,17,11,32.60
2017,09,04,17,12,32.60
2017,09,04,17,13,32.60
2017,09,04,17,14,32.60
2017,09,04,17,15,32.60
2017,09,04,17,16,32.60
2017,09,04,17,17,32.60
2017,09,04,17,18,32.60
2017,09,04,17,19,32.60